Location: Crescent
(42.8242°N, 73.7329°W)
Time: 05:52:38
(UTC+00:00)

Vanguard 2 Rocket - Pass Details

Date: 18 February 2026
Orbit: 553 x 3286 km, 32.9° (Epoch: 13 March)

Event Time Altitude Azimuth Distance (km) Brightness Sun altitude
Rises 13:14:03 0° 177° (S) 6,998 11.9 13.8°
Reaches altitude 10° 13:24:04 10° 151° (SSE) 6,217 12.4 15.3°
Maximum altitude 13:29:54 12° 134° (SE) 6,030 13.4 16.2°
Drops below altitude 10° 13:35:37 10° 116° (ESE) 6,086 13.4 17.1°
Sets 13:44:50 0° 91° (E) 6,687 12.2 18.5°
